Location: Malvern Link
(52.1333°N, 2.3000°W)
Time: 03:26:15
(UTC+00:00)

Cosmos 1634 Rocket - Pass Details

Date: 08 December 2021
Orbit: 959 x 993 km, 82.9° (Epoch: 21 January)

Event Time Altitude Azimuth Distance (km) Brightness Sun altitude
Exits shadow 05:52:36 21° 241° (WSW) 2,025 5.2 -19.0°
Drops below altitude 10° 05:55:12 10° 221° (SW) 2,711 6.1 -18.6°
Sets 05:58:02 0° 210° (SSW) 3,648 6.8 -18.2°
